Tracking 21605 objects as of 26-Oct-2020
HD Live streaming from Space Station
objects crossing your sky now

SUCHAI

Track SUCHAI now!
10-day predictions
SUCHAI is classified as:


NORAD ID: 42788
Int'l Code: 2017-036Z
Perigee: 494.0 km
Apogee: 507.2 km
Inclination: 97.3 °
Period: 94.5 minutes
Semi major axis: 6871 km
RCS: Unknown
Launch date: June 23, 2017
Source: Chile (CHLE)
Launch site: SRIHARIKOTA (SRI)

Uplink (MHz):
Downlink (MHz): 437.225
Beacon (MHz): 437.229
Mode: CW
Call sign: SUCHAI
Status: Active

aabbcc
Your satellite tracking list
Your tracking list is empty




NASA's NSSDC Master Catalog

Two Line Element Set (TLE):
1 42788U 17036Z   20300.40056330 +.00002537 +00000-0 +10718-3 0  9999
2 42788 097.2874 351.3850 0009569 285.8986 074.1197 15.24106948185821
Source of the keplerian elements: AMSAT